Notices

What's New in latest Release from April 7th, 2021:

- Updated Glossary, including Speed of Maximum Gust, and Total Hourly Precipitation

- Updated national and regional climate services offices contacts and prices information

- Addition of station inventory lists for 1981-2010, 1971-2000, and 1961-1990 Normals.

If you haven't already, please take our survey and provide feedback about our website: https://eccc.sondage-survey.ca/f/LanguageSelection.aspx?s=442ca660-fcf1-47c0-95a9-59707d6fd709

Hourly Data Report for November 19, 2019

PINAWA
MANITOBA
Current Station Operator: ECCC - MSC

50°10'38.020" N
96°03'53.000" W
268.00 m
503B1ER
71448
WEA

Download Data

Hourly Data (November 2019)
Hourly Data Report for November 19, 2019
TIME
LST
Temp Definition
°C
Dew Point Definition
°C
Rel Hum Definition
%
Precip. Amount Definition
mm

Wind Dir Definition
10's deg

Wind Spd Definition
km/h
Visibility Definition
km
Stn Press Definition
kPa
Hmdx Definition


Wind Chill Definition


Weather Definition


00:00 0.4 LegendMM LegendMM 0.0 15 6   96.96     LegendNANA
01:00 0.4 LegendMM LegendMM 0.0 17 6   96.98     LegendNANA
02:00 0.4 LegendMM LegendMM 0.0 15 5   97.00     LegendNANA
03:00 0.4 LegendMM LegendMM 0.0 17 4   97.04     LegendNANA
04:00 0.7 LegendMM LegendMM 0.0 20 3   97.04     LegendNANA
05:00 1.4 LegendMM LegendMM 0.0 30 12   97.11     LegendNANA
06:00 1.2 LegendMM LegendMM 0.0 30 14   97.17     LegendNANA
07:00 1.1 LegendMM LegendMM 0.0 31 13   97.24     LegendNANA
08:00 1.0 LegendMM LegendMM 0.0 31 12   97.30     LegendNANA
09:00 0.8 LegendMM LegendMM 0.0 30 12   97.38     LegendNANA
10:00 0.5 LegendMM LegendMM 0.0 31 10   97.46     LegendNANA
11:00 0.5 LegendMM LegendMM 0.2 30 11   97.52     LegendNANA
12:00 0.4 LegendMM LegendMM 0.0 30 15   97.58     LegendNANA
13:00 0.7 LegendMM LegendMM 0.0 30 12   97.59     LegendNANA
14:00 0.7 LegendMM LegendMM 0.0 30 14   97.66     LegendNANA
15:00 0.7 LegendMM LegendMM 0.0 32 12   97.70     LegendNANA
16:00 0.5 LegendMM LegendMM 0.0 32 9   97.75     LegendNANA
17:00 0.3 LegendMM LegendMM 0.0 31 8   97.82     LegendNANA
18:00 0.1 LegendMM LegendMM 0.0 32 8   97.87     LegendNANA
19:00 -0.1 LegendMM LegendMM 0.0 31 6   97.98   -2 LegendNANA
20:00 -0.2 LegendMM LegendMM 0.0 31 5   98.02   -2 LegendNANA
21:00 -0.3 LegendMM LegendMM 0.0 31 5   98.07   -2 LegendNANA
22:00 -0.4 LegendMM LegendMM 0.0 33 4   98.12   -2 LegendNANA
23:00 -0.6 LegendMM LegendMM 0.0 33 4   98.15   -2 LegendNANA

Notes on Data Quality.

Legend

  • E = Estimated
  • M = Missing
  • NA = Not Available*
  • [empty] = Indicates an unobserved value
Date modified: